METEOSAT-10 (MSG-3)

Last updated on Tue Oct 08 2024 00:02:17 GMT+0000 (Coordinated Universal Time)

1 38552U 12035B 24281.32854223 .00000006 00000+0 00000+0 0 9994 2 38552 3.2171 61.5477 0000251 235.6131 197.7455 1.00268175 44666
UTC large
Height (km)
Speed (km/s)
/
Latitude / Longitude
Inclination (degrees)
Orbital Period (minutes)
Azimuth
Elevation
Range (km)
Doppler Factor

Next 0 passes for location: London (51.5072 / 0.1276)

Sorry there are no passes over London.